Sandy Bay Weather Center
Weather Center


NOAA NWS Hourly Roundups by Site

NOAA NWS Hourly Roundups by Site

Regional Weather Roundup for Boston, MA

To Select Another Site Choose from List
Select Site:  

000
ASUS41 KBOX 250104
RWRBOX

REGIONAL WEATHER ROUNDUP
NATIONAL WEATHER SERVICE BOSTON/NORTON MA
900 PM EDT TUE MAY 24 2022

NOTE:  "FAIR" INDICATES FEW OR NO CLOUDS BELOW 12,000 FEET WITH NO
SIGNIFICANT WEATHER AND/OR OBSTRUCTIONS TO VISIBILITY.

MAZALL-250200-
EASTERN MASSACHUSETTS

CITY           SKY/WX    TMP DP  RH WIND       PRES   REMARKS
BOSTON         PTCLDY    54  46  74 SE9       30.35R
BEVERLY        CLEAR     50  43  77 SE7       30.34R
LAWRENCE       CLEAR     53  43  68 VRB3      30.36R
BEDFORD        CLEAR     52  46  80 E6        30.33R
BLUE HILL      NOT AVBL
NORWOOD        CLEAR     54  45  71 SE5       30.34R
MARSHFIELD     CLEAR     54  45  71 SE7       30.34S
PLYMOUTH       CLEAR     50  43  77 CALM      30.34R
TAUNTON        CLEAR     55  44  66 E5        30.34R
NEW BEDFORD    CLEAR     54  41  61 SE10      30.33R
$$

MAZALL-250200-
CAPE COD AND THE ISLANDS

CITY           SKY/WX    TMP DP  RH WIND       PRES   REMARKS
FALMOUTH       NOT AVBL
HYANNIS        CLEAR     51  42  71 E3        30.33R
CHATHAM        CLEAR     53  42  66 E7        30.36R
PROVINCETOWN   CLEAR     50  44  80 SE7       30.36R
NANTUCKET      CLEAR     50  44  80 E7        30.35R
MARTHAS VNYRD  CLEAR     51  43  74 E6        30.35R
$$

MAZALL-250200-
CENTRAL AND WESTERN MASSACHUSETTS

CITY           SKY/WX    TMP DP  RH WIND       PRES   REMARKS
WORCESTER      CLEAR     57  41  55 E7        30.33R
FITCHBURG      CLEAR     57  39  51 SE7       30.33R
ORANGE         CLEAR     61  43  51 S5        30.31R
SPRINGFIELD    PTCLDY    62  45  53 S8        30.29R
WESTFIELD      PTCLDY    62  44  51 S10       30.29R
NORTH ADAMS    CLOUDY    65  52  62 CALM      30.28R
PITTSFIELD     CLOUDY    61  48  62 S3        30.28R
$$

RIZALL-250200-
RHODE ISLAND

CITY           SKY/WX    TMP DP  RH WIND       PRES   REMARKS
PROVIDENCE     MOCLDY    57  46  66 SE7       30.34R
NEWPORT        CLEAR     52  45  77 SE5       30.34R
BLOCK ISLAND   CLEAR     52  43  71 SE10      30.34S
SMITHFIELD     PTCLDY    55  46  71 VRB3      30.34R
WESTERLY       CLEAR     54  47  77 E7        30.34R
$$

CTZALL-250200-
CONNECTICUT

CITY           SKY/WX    TMP DP  RH WIND       PRES   REMARKS
BRADLEY INTL   PTCLDY    63  44  50 S12       30.30R
HARTFORD       CLEAR     62  44  51 S9        30.32R
BRIDGEPORT     PTCLDY    59  50  72 SE8       30.32R
DANBURY        CLOUDY    60  45  57 CALM      30.33R
GROTON         CLEAR     55  48  77 E5        30.34R
NEW HAVEN      PTCLDY    59  52  77 E6        30.33R
CHESTER        FAIR      54  46  76 VRB3      30.34R
MERIDEN        CLEAR     59  42  53 S5        30.33R
WILLIMANTIC    CLEAR     58  47  66 S8        30.33R
OXFORD         PTCLDY    57  42  57 S5        30.33R
$$

MEZ002-015-021-024-NHZ003-005-008-011-012-014-VTZ005-008-250200-
NORTHERN NEW ENGLAND

CITY           SKY/WX    TMP DP  RH WIND       PRES   REMARKS
PORTLAND ME    CLEAR     50  46  86 S3        30.36S
BANGOR ME      PTCLDY    52  40  63 S9        30.34R
CONCORD NH     CLEAR     54  42  64 SE5       30.33R
MANCHESTER NH  MOCLDY    58  45  62 SE6       30.32R
NASHUA NH      CLEAR     57  46  66 SE5       30.34R
PORTSMOUTH NH  MOCLDY    50  43  75 SE6       30.35S
JAFFREY NH     CLEAR     56  42  59 SE5       30.32R
KEENE NH       PTCLDY    60  46  59 S8        30.30R
BURLINGTON VT  PTCLDY    60  38  43 N5        30.29R
MT. WASHINGTON MOCLDY    36  32  87 W12         N/A  WCI  27
$$

NYZ052-076-250200-
EASTERN NEW YORK

CITY           SKY/WX    TMP DP  RH WIND       PRES   REMARKS
ALBANY         MOCLDY    65  48  54 S7        30.26R
NEW YORK CITY  MOCLDY    60  44  55 S8        30.32R
$$

ANZALL-250200-
MARINE OBSERVATIONS

STATION/POSITION TIME  TEMP    WIND        PRES    VSBY  WAVE
                       AIR SEA DIR/SP/G                  HT/PER
                 (UTC) (F)     (DEG/KT/KT) (MB)    (MI)  (FT/S)
BOSTON BUOY      0040      53  120/ 12/ 14 1027.7R
BUZZARDS BAY     0000   54     130/ 17/ 18 1026.9F
NANTUCKET SOUND  0040   53 56  100/ 14/ 16 1027.3
MASS BAY-STELLWA NOT AVBL
ISLE OF SHOALS   0000   53     150/ 13/ 14 1026.9R
S OF BLOCK IS    0026      56                N/A           3/ 4
$$

......................KEY.........................
  SKY/WX - SKY CONDITION/PRESENT WEATHER
  TMP    - TEMPERATURE IN FAHRENHEIT
  DWPT   - DEWPOINT IN FAHRENHEIT
  RH     - RELATIVE HUMIDITY IN PERCENT
  WIND   - DIRECTION AND SPEED IN MPH
  PRES   - MEAN SEA LEVEL PRESSURE IN INCHES OF HG
  WCI    - WIND CHILL INDEX
  VSB    - VISIBILITY IN MILES
  HX     - HEAT INDEX
  TC     - TEMPERATURE IN CELSIUS
  VRB    - VARIABLE WIND DIRECTION
  N/A    - NOT AVAILABLE


 

View Past Reports for Boston, MA.

Products Courtesy of NOAA-NWS
NWS Information Parsing Script by Ken True at Saratoga Weather - Script by SE Lincoln Weather.

 



Copyright © Sandybay.net   ::   All rights reserved.